This is the latest recevied weather packets stored in our database for station/object W8CEN. If no packets are shown the sender has not sent any weather packets the latest 10 day(s).
| Time | Temp. | Humidity | Pressure | Rain* | Wind** | Luminosity | Snow |
|---|---|---|---|---|---|---|---|
| 1777602800 | 10° C | 51% | 993.5 hPa | 0 mm | - | 0 W/m² | - |
| 1777602495 | 10.56° C | 50% | 993.6 hPa | 0 mm | - | 0 W/m² | - |
| 1777602192 | 10.56° C | 51% | 993.4 hPa | 0 mm | - | 0 W/m² | - |
| 1777601887 | 10.56° C | 49% | 993.4 hPa | 0 mm | - | 0 W/m² | - |
| 1777601583 | 10.56° C | 49% | 993.4 hPa | 0 mm | - | 0 W/m² | - |
| 1777601278 | 10.56° C | 52% | 993.4 hPa | 0 mm | - | 0 W/m² | - |
| 1777600975 | 10.56° C | 51% | 993.4 hPa | 0 mm | - | 0 W/m² | - |
| 1777600671 | 10.56° C | 50% | 993.2 hPa | 0 mm | - | 0 W/m² | - |
| 1777600367 | 10° C | 52% | 993.5 hPa | 0 mm | - | 0 W/m² | - |
| 1777600064 | 10° C | 55% | 993.3 hPa | 0 mm | - | 0 W/m² | - |
| 1777599759 | 9.44° C | 57% | 993.1 hPa | 0 mm | - | 0 W/m² | - |
| 1777599455 | 9.44° C | 61% | 993 hPa | 0 mm | - | 0 W/m² | - |
| 1777599153 | 9.44° C | 62% | 992.9 hPa | 0 mm | - | 0 W/m² | - |
| 1777598852 | 8.89° C | 64% | 992.9 hPa | 0 mm | - | 0 W/m² | - |
| 1777598552 | 8.89° C | 65% | 992.8 hPa | 0 mm | - | 0 W/m² | - |
| 1777598246 | 8.89° C | 65% | 992.7 hPa | 0 mm | - | 0 W/m² | - |
| 1777597945 | 8.89° C | 64% | 992.8 hPa | 0 mm | - | 0 W/m² | - |
| 1777597644 | 8.89° C | 63% | 992.7 hPa | 0 mm | - | 0 W/m² | - |
| 1777597340 | 8.89° C | 63% | 992.9 hPa | 0 mm | - | 0 W/m² | - |
| 1777597036 | 8.89° C | 63% | 992.7 hPa | 0 mm | - | 0 W/m² | - |
| 1777596733 | 8.89° C | 61% | 992.8 hPa | 0 mm | - | 0 W/m² | - |
| 1777596429 | 9.44° C | 61% | 992.6 hPa | 0 mm | - | 0 W/m² | - |
| 1777596126 | 9.44° C | 59% | 992.4 hPa | 0 mm | - | 1 W/m² | - |
| 1777595822 | 9.44° C | 58% | 992.6 hPa | 0 mm | - | 1 W/m² | - |
| 1777595517 | 10° C | 57% | 992.6 hPa | 0 mm | - | 2 W/m² | - |
* Rain latest hour (hover to see other rain measurements)
** Current wind speed in m/s (hover to see current wind gust speed)